owner,sensor,date,latitude,longitude,vertical_datum,sea_water_practical_salinity,qcFlag 
TABS,ioos:station:wmo:42049:1,2014-02-01T00:00:00Z,28.3507,-96.0058,2.0,31.7946,11111222 
TABS,ioos:station:wmo:42049:1,2014-02-01T00:30:00Z,28.3507,-96.0058,2.0,31.8506,11111222 
TABS,ioos:station:wmo:42049:1,2014-02-01T01:00:00Z,28.3507,-96.0058,2.0,31.8613,11111222 
TABS,ioos:station:wmo:42049:1,2014-02-01T01:30:00Z,28.3507,-96.0058,2.0,31.8301,11111222 
TABS,ioos:station:wmo:42049:1,2014-02-01T02:00:00Z,28.3507,-96.0058,2.0,31.8059,11111222 
TABS,ioos:station:wmo:42049:1,2014-02-01T02:30:00Z,28.3507,-96.0058,2.0,31.8925,11111222 
TABS,ioos:station:wmo:42049:1,2014-02-01T03:00:00Z,28.3507,-96.0058,2.0,31.9855,11111222 
TABS,ioos:station:wmo:42049:1,2014-02-01T03:30:00Z,28.3507,-96.0058,2.0,32.1047,11111222 
TABS,ioos:station:wmo:42049:1,2014-02-01T04:00:00Z,28.3507,-96.0058,2.0,32.2814,11111222 
TABS,ioos:station:wmo:42049:1,2014-02-01T04:30:00Z,28.3507,-96.0058,2.0,32.6605,11111222 
TABS,ioos:station:wmo:42049:1,2014-02-01T05:00:00Z,28.3507,-96.0058,2.0,32.751,11111222 
TABS,ioos:station:wmo:42049:1,2014-02-01T05:30:00Z,28.3507,-96.0058,2.0,32.73,11111222 
TABS,ioos:station:wmo:42049:1,2014-02-01T06:00:00Z,28.3507,-96.0058,2.0,32.7241,11111222 
TABS,ioos:station:wmo:42049:1,2014-02-01T06:30:00Z,28.3507,-96.0058,2.0,32.7221,11111222 
TABS,ioos:station:wmo:42049:1,2014-02-01T07:00:00Z,28.3507,-96.0058,2.0,32.7578,11111222 
TABS,ioos:station:wmo:42049:1,2014-02-01T07:30:00Z,28.3507,-96.0058,2.0,32.8464,11111222 
TABS,ioos:station:wmo:42049:1,2014-02-01T08:00:00Z,28.3507,-96.0058,2.0,32.9412,11111222 
TABS,ioos:station:wmo:42049:1,2014-02-01T08:30:00Z,28.3507,-96.0058,2.0,32.9415,11111222 
TABS,ioos:station:wmo:42049:1,2014-02-01T09:00:00Z,28.3507,-96.0058,2.0,32.9823,11111222 
TABS,ioos:station:wmo:42049:1,2014-02-01T09:30:00Z,28.3507,-96.0058,2.0,32.9696,11111222 
TABS,ioos:station:wmo:42049:1,2014-02-01T10:00:00Z,28.3507,-96.0058,2.0,32.9562,11111222 
TABS,ioos:station:wmo:42049:1,2014-02-01T10:30:00Z,28.3507,-96.0058,2.0,32.9497,11111222 
TABS,ioos:station:wmo:42049:1,2014-02-01T11:00:00Z,28.3507,-96.0058,2.0,32.9221,11111222 
TABS,ioos:station:wmo:42049:1,2014-02-01T11:30:00Z,28.3507,-96.0058,2.0,32.8468,11111222 
TABS,ioos:station:wmo:42049:1,2014-02-01T12:00:00Z,28.3507,-96.0058,2.0,32.804,11111222 
TABS,ioos:station:wmo:42049:1,2014-02-01T12:30:00Z,28.3507,-96.0058,2.0,32.7544,11111222 
TABS,ioos:station:wmo:42049:1,2014-02-01T13:00:00Z,28.3507,-96.0058,2.0,32.7052,11111222 
TABS,ioos:station:wmo:42049:1,2014-02-01T13:30:00Z,28.3507,-96.0058,2.0,32.6301,11111222 
TABS,ioos:station:wmo:42049:1,2014-02-01T14:00:00Z,28.3507,-96.0058,2.0,32.6073,11111222 
TABS,ioos:station:wmo:42049:1,2014-02-01T14:30:00Z,28.3507,-96.0058,2.0,32.5798,11111222 
TABS,ioos:station:wmo:42049:1,2014-02-01T15:00:00Z,28.3507,-96.0058,2.0,32.5673,11111222 
TABS,ioos:station:wmo:42049:1,2014-02-01T15:30:00Z,28.3507,-96.0058,2.0,32.5397,11111222 
TABS,ioos:station:wmo:42049:1,2014-02-01T16:00:00Z,28.3507,-96.0058,2.0,32.4978,11111222 
TABS,ioos:station:wmo:42049:1,2014-02-01T16:30:00Z,28.3507,-96.0058,2.0,32.4452,11111222 
TABS,ioos:station:wmo:42049:1,2014-02-01T17:00:00Z,28.3507,-96.0058,2.0,32.4584,11111222 
TABS,ioos:station:wmo:42049:1,2014-02-01T17:30:00Z,28.3507,-96.0058,2.0,32.2301,11111222 
TABS,ioos:station:wmo:42049:1,2014-02-01T18:00:00Z,28.3507,-96.0058,2.0,32.1785,11111222 
TABS,ioos:station:wmo:42049:1,2014-02-01T18:30:00Z,28.3507,-96.0058,2.0,32.3396,11111222 
TABS,ioos:station:wmo:42049:1,2014-02-01T19:00:00Z,28.3507,-96.0058,2.0,32.2576,11111222 
TABS,ioos:station:wmo:42049:1,2014-02-01T19:30:00Z,28.3507,-96.0058,2.0,32.5459,11111222 
TABS,ioos:station:wmo:42049:1,2014-02-01T20:00:00Z,28.3507,-96.0058,2.0,32.5593,11111222 
TABS,ioos:station:wmo:42049:1,2014-02-01T20:30:00Z,28.3507,-96.0058,2.0,32.5063,11111222 
TABS,ioos:station:wmo:42049:1,2014-02-01T21:00:00Z,28.3507,-96.0058,2.0,32.4703,11111222 
TABS,ioos:station:wmo:42049:1,2014-02-01T21:30:00Z,28.3507,-96.0058,2.0,32.4275,11111222 
TABS,ioos:station:wmo:42049:1,2014-02-01T22:00:00Z,28.3507,-96.0058,2.0,32.5688,11111222 
TABS,ioos:station:wmo:42049:1,2014-02-01T22:30:00Z,28.3507,-96.0058,2.0,32.5893,11111222 
TABS,ioos:station:wmo:42049:1,2014-02-01T23:00:00Z,28.3507,-96.0058,2.0,32.5419,11111222 
TABS,ioos:station:wmo:42049:1,2014-02-01T23:30:00Z,28.3507,-96.0058,2.0,32.5948,11111222 
TABS,ioos:station:wmo:42049:1,2014-02-02T00:00:00Z,28.3507,-96.0058,2.0,32.5755,11111222 
TABS,ioos:station:wmo:42049:1,2014-02-02T00:30:00Z,28.3507,-96.0058,2.0,32.4958,11111222 
TABS,ioos:station:wmo:42049:1,2014-02-02T01:00:00Z,28.3507,-96.0058,2.0,32.4765,11111222 
TABS,ioos:station:wmo:42049:1,2014-02-02T01:30:00Z,28.3507,-96.0058,2.0,32.4262,11111222 
TABS,ioos:station:wmo:42049:1,2014-02-02T02:00:00Z,28.3507,-96.0058,2.0,32.4601,11111222 
TABS,ioos:station:wmo:42049:1,2014-02-02T02:30:00Z,28.3507,-96.0058,2.0,32.6877,11111222 
TABS,ioos:station:wmo:42049:1,2014-02-02T03:00:00Z,28.3507,-96.0058,2.0,32.7935,11111222 
TABS,ioos:station:wmo:42049:1,2014-02-02T03:30:00Z,28.3507,-96.0058,2.0,32.7878,11111222 
TABS,ioos:station:wmo:42049:1,2014-02-02T04:00:00Z,28.3507,-96.0058,2.0,32.7156,11111222 
TABS,ioos:station:wmo:42049:1,2014-02-02T04:30:00Z,28.3507,-96.0058,2.0,32.5774,11111222 
TABS,ioos:station:wmo:42049:1,2014-02-02T05:00:00Z,28.3507,-96.0058,2.0,32.5074,11111222 
TABS,ioos:station:wmo:42049:1,2014-02-02T05:30:00Z,28.3507,-96.0058,2.0,32.2421,11111222 
TABS,ioos:station:wmo:42049:1,2014-02-02T06:00:00Z,28.3507,-96.0058,2.0,32.0895,11111222 
TABS,ioos:station:wmo:42049:1,2014-02-02T06:30:00Z,28.3507,-96.0058,2.0,32.0251,11111222 
TABS,ioos:station:wmo:42049:1,2014-02-02T07:00:00Z,28.3507,-96.0058,2.0,31.8579,11111222 
TABS,ioos:station:wmo:42049:1,2014-02-02T07:30:00Z,28.3507,-96.0058,2.0,31.783,11111222 
TABS,ioos:station:wmo:42049:1,2014-02-02T08:00:00Z,28.3507,-96.0058,2.0,31.6942,11111222 
TABS,ioos:station:wmo:42049:1,2014-02-02T08:30:00Z,28.3507,-96.0058,2.0,31.7288,11111222 
TABS,ioos:station:wmo:42049:1,2014-02-02T09:00:00Z,28.3507,-96.0058,2.0,31.7264,11111222 
TABS,ioos:station:wmo:42049:1,2014-02-02T09:30:00Z,28.3507,-96.0058,2.0,31.6109,11111222 
TABS,ioos:station:wmo:42049:1,2014-02-02T10:00:00Z,28.3507,-96.0058,2.0,31.5545,11111222 
TABS,ioos:station:wmo:42049:1,2014-02-02T10:30:00Z,28.3507,-96.0058,2.0,31.5213,11111222 
TABS,ioos:station:wmo:42049:1,2014-02-02T11:00:00Z,28.3507,-96.0058,2.0,31.5016,11111222 
TABS,ioos:station:wmo:42049:1,2014-02-02T11:30:00Z,28.3507,-96.0058,2.0,31.4783,11111222 
TABS,ioos:station:wmo:42049:1,2014-02-02T12:00:00Z,28.3507,-96.0058,2.0,31.442,11111222 
TABS,ioos:station:wmo:42049:1,2014-02-02T12:30:00Z,28.3507,-96.0058,2.0,31.4375,11111222 
TABS,ioos:station:wmo:42049:1,2014-02-02T13:00:00Z,28.3507,-96.0058,2.0,31.4269,11111222 
TABS,ioos:station:wmo:42049:1,2014-02-02T13:30:00Z,28.3507,-96.0058,2.0,31.4382,11111222 
TABS,ioos:station:wmo:42049:1,2014-02-02T14:00:00Z,28.3507,-96.0058,2.0,31.4476,11111222 
TABS,ioos:station:wmo:42049:1,2014-02-02T14:30:00Z,28.3507,-96.0058,2.0,31.4384,11111222 
TABS,ioos:station:wmo:42049:1,2014-02-02T15:00:00Z,28.3507,-96.0058,2.0,31.4377,11111222 
TABS,ioos:station:wmo:42049:1,2014-02-02T15:30:00Z,28.3507,-96.0058,2.0,31.4396,11111222 
TABS,ioos:station:wmo:42049:1,2014-02-02T16:00:00Z,28.3507,-96.0058,2.0,31.4457,11111222 
TABS,ioos:station:wmo:42049:1,2014-02-02T16:30:00Z,28.3507,-96.0058,2.0,31.4441,11111222 
TABS,ioos:station:wmo:42049:1,2014-02-02T17:00:00Z,28.3507,-96.0058,2.0,31.4565,11111222 
TABS,ioos:station:wmo:42049:1,2014-02-02T17:30:00Z,28.3507,-96.0058,2.0,31.4492,11111222 
TABS,ioos:station:wmo:42049:1,2014-02-02T18:00:00Z,28.3507,-96.0058,2.0,31.3672,11111222 
TABS,ioos:station:wmo:42049:1,2014-02-02T18:30:00Z,28.3507,-96.0058,2.0,31.3673,11111222 
TABS,ioos:station:wmo:42049:1,2014-02-02T19:00:00Z,28.3507,-96.0058,2.0,31.3707,11111222 
TABS,ioos:station:wmo:42049:1,2014-02-02T19:30:00Z,28.3507,-96.0058,2.0,31.2609,11111222 
TABS,ioos:station:wmo:42049:1,2014-02-02T20:00:00Z,28.3507,-96.0058,2.0,31.2354,11111222 
TABS,ioos:station:wmo:42049:1,2014-02-02T20:30:00Z,28.3507,-96.0058,2.0,31.2671,11111222 
TABS,ioos:station:wmo:42049:1,2014-02-02T21:00:00Z,28.3507,-96.0058,2.0,31.3777,11111222 
TABS,ioos:station:wmo:42049:1,2014-02-02T21:30:00Z,28.3507,-96.0058,2.0,31.5317,11111222 
TABS,ioos:station:wmo:42049:1,2014-02-02T22:00:00Z,28.3507,-96.0058,2.0,31.5701,11111222 
TABS,ioos:station:wmo:42049:1,2014-02-02T22:30:00Z,28.3507,-96.0058,2.0,31.4825,11111222 
TABS,ioos:station:wmo:42049:1,2014-02-02T23:00:00Z,28.3507,-96.0058,2.0,31.5743,11111222 
TABS,ioos:station:wmo:42049:1,2014-02-02T23:30:00Z,28.3507,-96.0058,2.0,31.6139,11111222 
TABS,ioos:station:wmo:42049:1,2014-02-03T00:00:00Z,28.3507,-96.0058,2.0,31.4462,11111222 
TABS,ioos:station:wmo:42049:1,2014-02-03T00:30:00Z,28.3507,-96.0058,2.0,31.3025,11111222 
TABS,ioos:station:wmo:42049:1,2014-02-03T01:00:00Z,28.3507,-96.0058,2.0,31.245,11111222 
TABS,ioos:station:wmo:42049:1,2014-02-03T01:30:00Z,28.3507,-96.0058,2.0,31.2438,11111222 
TABS,ioos:station:wmo:42049:1,2014-02-03T02:00:00Z,28.3507,-96.0058,2.0,31.4411,11111222 
TABS,ioos:station:wmo:42049:1,2014-02-03T02:30:00Z,28.3507,-96.0058,2.0,31.5754,11111222 
TABS,ioos:station:wmo:42049:1,2014-02-03T03:00:00Z,28.3507,-96.0058,2.0,31.6703,11111222 
TABS,ioos:station:wmo:42049:1,2014-02-03T03:30:00Z,28.3507,-96.0058,2.0,31.8202,11111222 
TABS,ioos:station:wmo:42049:1,2014-02-03T04:00:00Z,28.3507,-96.0058,2.0,31.7244,11111222 
TABS,ioos:station:wmo:42049:1,2014-02-03T04:30:00Z,28.3507,-96.0058,2.0,31.8883,11111222 
TABS,ioos:station:wmo:42049:1,2014-02-03T05:00:00Z,28.3507,-96.0058,2.0,31.8629,11111222 
TABS,ioos:station:wmo:42049:1,2014-02-03T05:30:00Z,28.3507,-96.0058,2.0,31.8003,11111222 
TABS,ioos:station:wmo:42049:1,2014-02-03T06:00:00Z,28.3507,-96.0058,2.0,32.09,11111222 
TABS,ioos:station:wmo:42049:1,2014-02-03T06:30:00Z,28.3507,-96.0058,2.0,31.9122,11111222 
TABS,ioos:station:wmo:42049:1,2014-02-03T07:00:00Z,28.3507,-96.0058,2.0,31.7357,11111222 
TABS,ioos:station:wmo:42049:1,2014-02-03T07:30:00Z,28.3507,-96.0058,2.0,31.8304,11111222 
TABS,ioos:station:wmo:42049:1,2014-02-03T08:00:00Z,28.3507,-96.0058,2.0,31.7017,11111222 
TABS,ioos:station:wmo:42049:1,2014-02-03T08:30:00Z,28.3507,-96.0058,2.0,31.8326,11111222 
TABS,ioos:station:wmo:42049:1,2014-02-03T09:00:00Z,28.3507,-96.0058,2.0,31.8312,11111222 
TABS,ioos:station:wmo:42049:1,2014-02-03T09:30:00Z,28.3507,-96.0058,2.0,31.7269,11111222 
TABS,ioos:station:wmo:42049:1,2014-02-03T10:00:00Z,28.3507,-96.0058,2.0,31.5696,11111222 
TABS,ioos:station:wmo:42049:1,2014-02-03T10:30:00Z,28.3507,-96.0058,2.0,31.6799,11111222 
TABS,ioos:station:wmo:42049:1,2014-02-03T11:00:00Z,28.3507,-96.0058,2.0,31.8041,11111222 
TABS,ioos:station:wmo:42049:1,2014-02-03T11:30:00Z,28.3507,-96.0058,2.0,31.9698,11111222 
TABS,ioos:station:wmo:42049:1,2014-02-03T12:00:00Z,28.3507,-96.0058,2.0,31.9071,11111222 
TABS,ioos:station:wmo:42049:1,2014-02-03T12:30:00Z,28.3507,-96.0058,2.0,31.5213,11111222 
TABS,ioos:station:wmo:42049:1,2014-02-03T13:00:00Z,28.3507,-96.0058,2.0,31.6306,11111222 
TABS,ioos:station:wmo:42049:1,2014-02-03T13:30:00Z,28.3507,-96.0058,2.0,31.628,11111222 
TABS,ioos:station:wmo:42049:1,2014-02-03T14:00:00Z,28.3507,-96.0058,2.0,31.5728,11111222 
TABS,ioos:station:wmo:42049:1,2014-02-03T14:30:00Z,28.3507,-96.0058,2.0,31.5007,11111222 
TABS,ioos:station:wmo:42049:1,2014-02-03T15:00:00Z,28.3507,-96.0058,2.0,31.5203,11111222 
TABS,ioos:station:wmo:42049:1,2014-02-03T15:30:00Z,28.3507,-96.0058,2.0,31.783,11111222 
TABS,ioos:station:wmo:42049:1,2014-02-03T16:00:00Z,28.3507,-96.0058,2.0,32.0307,11111222 
TABS,ioos:station:wmo:42049:1,2014-02-03T16:30:00Z,28.3507,-96.0058,2.0,31.8258,11111222 
TABS,ioos:station:wmo:42049:1,2014-02-03T17:00:00Z,28.3507,-96.0058,2.0,31.9708,11111222 
TABS,ioos:station:wmo:42049:1,2014-02-03T17:30:00Z,28.3507,-96.0058,2.0,31.9613,11111222 
TABS,ioos:station:wmo:42049:1,2014-02-03T18:00:00Z,28.3507,-96.0058,2.0,32.0726,11111222 
TABS,ioos:station:wmo:42049:1,2014-02-03T18:30:00Z,28.3507,-96.0058,2.0,31.9538,11111222 
TABS,ioos:station:wmo:42049:1,2014-02-03T19:00:00Z,28.3507,-96.0058,2.0,31.9819,11111222 
TABS,ioos:station:wmo:42049:1,2014-02-03T19:30:00Z,28.3507,-96.0058,2.0,32.0831,11111222 
TABS,ioos:station:wmo:42049:1,2014-02-03T20:00:00Z,28.3507,-96.0058,2.0,32.3892,11111222 
TABS,ioos:station:wmo:42049:1,2014-02-03T20:30:00Z,28.3507,-96.0058,2.0,32.5605,11111222 
TABS,ioos:station:wmo:42049:1,2014-02-03T21:00:00Z,28.3507,-96.0058,2.0,32.8553,11111222 
TABS,ioos:station:wmo:42049:1,2014-02-03T21:30:00Z,28.3507,-96.0058,2.0,32.4751,11111222 
TABS,ioos:station:wmo:42049:1,2014-02-03T22:00:00Z,28.3507,-96.0058,2.0,32.5229,11111222 
TABS,ioos:station:wmo:42049:1,2014-02-03T22:30:00Z,28.3507,-96.0058,2.0,32.7029,11111222 
TABS,ioos:station:wmo:42049:1,2014-02-03T23:00:00Z,28.3507,-96.0058,2.0,32.7147,11111222 
TABS,ioos:station:wmo:42049:1,2014-02-03T23:30:00Z,28.3507,-96.0058,2.0,32.7514,11111222 
TABS,ioos:station:wmo:42049:1,2014-02-04T00:00:00Z,28.3507,-96.0058,2.0,32.9549,11111222 
TABS,ioos:station:wmo:42049:1,2014-02-04T00:30:00Z,28.3507,-96.0058,2.0,33.0696,11111222 
TABS,ioos:station:wmo:42049:1,2014-02-04T01:00:00Z,28.3507,-96.0058,2.0,33.1685,11111222 
TABS,ioos:station:wmo:42049:1,2014-02-04T01:30:00Z,28.3507,-96.0058,2.0,33.2124,11111222 
TABS,ioos:station:wmo:42049:1,2014-02-04T02:00:00Z,28.3507,-96.0058,2.0,33.0926,11111222 
TABS,ioos:station:wmo:42049:1,2014-02-04T02:30:00Z,28.3507,-96.0058,2.0,33.2061,11111222 
TABS,ioos:station:wmo:42049:1,2014-02-04T03:00:00Z,28.3507,-96.0058,2.0,33.2642,11111222 
TABS,ioos:station:wmo:42049:1,2014-02-04T03:30:00Z,28.3507,-96.0058,2.0,33.2797,11111222 
TABS,ioos:station:wmo:42049:1,2014-02-04T04:00:00Z,28.3507,-96.0058,2.0,33.3629,11111222 
TABS,ioos:station:wmo:42049:1,2014-02-04T04:30:00Z,28.3507,-96.0058,2.0,33.5321,11111222 
TABS,ioos:station:wmo:42049:1,2014-02-04T05:00:00Z,28.3507,-96.0058,2.0,33.6327,11111222 
TABS,ioos:station:wmo:42049:1,2014-02-04T05:30:00Z,28.3507,-96.0058,2.0,33.7637,11111222 
TABS,ioos:station:wmo:42049:1,2014-02-04T06:00:00Z,28.3507,-96.0058,2.0,34.0331,11111222 
TABS,ioos:station:wmo:42049:1,2014-02-04T06:30:00Z,28.3507,-96.0058,2.0,34.0926,11111222 
TABS,ioos:station:wmo:42049:1,2014-02-04T07:00:00Z,28.3507,-96.0058,2.0,34.3073,11111222 
TABS,ioos:station:wmo:42049:1,2014-02-04T07:30:00Z,28.3507,-96.0058,2.0,34.4448,11111222 
TABS,ioos:station:wmo:42049:1,2014-02-04T08:00:00Z,28.3507,-96.0058,2.0,34.5021,11111222 
TABS,ioos:station:wmo:42049:1,2014-02-04T08:30:00Z,28.3507,-96.0058,2.0,34.5402,11111222 
TABS,ioos:station:wmo:42049:1,2014-02-04T09:00:00Z,28.3507,-96.0058,2.0,34.5719,11111222 
TABS,ioos:station:wmo:42049:1,2014-02-04T09:30:00Z,28.3507,-96.0058,2.0,34.6044,11111222 
TABS,ioos:station:wmo:42049:1,2014-02-04T10:00:00Z,28.3507,-96.0058,2.0,34.6275,11111222 
TABS,ioos:station:wmo:42049:1,2014-02-04T10:30:00Z,28.3507,-96.0058,2.0,34.6923,11111222 
TABS,ioos:station:wmo:42049:1,2014-02-04T11:00:00Z,28.3507,-96.0058,2.0,34.7002,11111222 
TABS,ioos:station:wmo:42049:1,2014-02-04T11:30:00Z,28.3507,-96.0058,2.0,34.6893,11111222 
TABS,ioos:station:wmo:42049:1,2014-02-04T12:00:00Z,28.3507,-96.0058,2.0,34.6784,11111222 
TABS,ioos:station:wmo:42049:1,2014-02-04T12:30:00Z,28.3507,-96.0058,2.0,34.6779,11111222 
TABS,ioos:station:wmo:42049:1,2014-02-04T13:00:00Z,28.3507,-96.0058,2.0,34.6693,11111222 
TABS,ioos:station:wmo:42049:1,2014-02-04T13:30:00Z,28.3507,-96.0058,2.0,34.6434,11111222 
TABS,ioos:station:wmo:42049:1,2014-02-04T14:00:00Z,28.3507,-96.0058,2.0,34.6134,11111222 
TABS,ioos:station:wmo:42049:1,2014-02-04T14:30:00Z,28.3507,-96.0058,2.0,34.562,11111222 
TABS,ioos:station:wmo:42049:1,2014-02-04T15:00:00Z,28.3507,-96.0058,2.0,34.5194,11111222 
TABS,ioos:station:wmo:42049:1,2014-02-04T15:30:00Z,28.3507,-96.0058,2.0,34.5005,11111222 
TABS,ioos:station:wmo:42049:1,2014-02-04T16:00:00Z,28.3507,-96.0058,2.0,34.517,11111222 
TABS,ioos:station:wmo:42049:1,2014-02-04T16:30:00Z,28.3507,-96.0058,2.0,34.5472,11111222 
TABS,ioos:station:wmo:42049:1,2014-02-04T17:00:00Z,28.3507,-96.0058,2.0,34.5861,11111222 
TABS,ioos:station:wmo:42049:1,2014-02-04T17:30:00Z,28.3507,-96.0058,2.0,34.4428,11111222 
TABS,ioos:station:wmo:42049:1,2014-02-04T18:00:00Z,28.3507,-96.0058,2.0,34.361,11111222 
TABS,ioos:station:wmo:42049:1,2014-02-04T18:30:00Z,28.3507,-96.0058,2.0,34.3098,11111222 
TABS,ioos:station:wmo:42049:1,2014-02-04T19:00:00Z,28.3507,-96.0058,2.0,34.3193,11111222 
TABS,ioos:station:wmo:42049:1,2014-02-04T19:30:00Z,28.3507,-96.0058,2.0,34.273,11111222 
TABS,ioos:station:wmo:42049:1,2014-02-04T20:00:00Z,28.3507,-96.0058,2.0,34.2396,11111222 
TABS,ioos:station:wmo:42049:1,2014-02-04T20:30:00Z,28.3507,-96.0058,2.0,34.2037,11111222 
TABS,ioos:station:wmo:42049:1,2014-02-04T21:00:00Z,28.3507,-96.0058,2.0,34.2266,11111222 
TABS,ioos:station:wmo:42049:1,2014-02-04T21:30:00Z,28.3507,-96.0058,2.0,34.2228,11111222 
TABS,ioos:station:wmo:42049:1,2014-02-04T22:00:00Z,28.3507,-96.0058,2.0,34.1941,11111222 
TABS,ioos:station:wmo:42049:1,2014-02-04T22:30:00Z,28.3507,-96.0058,2.0,34.1951,11111222 
TABS,ioos:station:wmo:42049:1,2014-02-04T23:00:00Z,28.3507,-96.0058,2.0,34.1153,11111222 
TABS,ioos:station:wmo:42049:1,2014-02-04T23:30:00Z,28.3507,-96.0058,2.0,34.2468,11111222 
TABS,ioos:station:wmo:42049:1,2014-02-05T00:00:00Z,28.3507,-96.0058,2.0,34.271,11111222 
TABS,ioos:station:wmo:42049:1,2014-02-05T00:30:00Z,28.3507,-96.0058,2.0,34.3642,11111222 
TABS,ioos:station:wmo:42049:1,2014-02-05T01:00:00Z,28.3507,-96.0058,2.0,34.0206,11111222 
TABS,ioos:station:wmo:42049:1,2014-02-05T01:30:00Z,28.3507,-96.0058,2.0,34.0984,11111222 
TABS,ioos:station:wmo:42049:1,2014-02-05T02:00:00Z,28.3507,-96.0058,2.0,34.4292,11111222 
TABS,ioos:station:wmo:42049:1,2014-02-05T02:30:00Z,28.3507,-96.0058,2.0,34.4928,11111222 
TABS,ioos:station:wmo:42049:1,2014-02-05T03:00:00Z,28.3507,-96.0058,2.0,34.3785,11111222 
TABS,ioos:station:wmo:42049:1,2014-02-05T03:30:00Z,28.3507,-96.0058,2.0,34.4203,11111222 
TABS,ioos:station:wmo:42049:1,2014-02-05T04:00:00Z,28.3507,-96.0058,2.0,34.503,11111222 
TABS,ioos:station:wmo:42049:1,2014-02-05T04:30:00Z,28.3507,-96.0058,2.0,34.5038,11111222 
TABS,ioos:station:wmo:42049:1,2014-02-05T05:00:00Z,28.3507,-96.0058,2.0,34.215,11111222 
TABS,ioos:station:wmo:42049:1,2014-02-05T05:30:00Z,28.3507,-96.0058,2.0,34.3831,11111222 
TABS,ioos:station:wmo:42049:1,2014-02-05T06:00:00Z,28.3507,-96.0058,2.0,34.3076,11111222 
TABS,ioos:station:wmo:42049:1,2014-02-05T06:30:00Z,28.3507,-96.0058,2.0,34.4324,11111222 
TABS,ioos:station:wmo:42049:1,2014-02-05T07:00:00Z,28.3507,-96.0058,2.0,34.4749,11111222 
TABS,ioos:station:wmo:42049:1,2014-02-05T07:30:00Z,28.3507,-96.0058,2.0,34.4709,11111222 
TABS,ioos:station:wmo:42049:1,2014-02-05T08:00:00Z,28.3507,-96.0058,2.0,34.4085,11111222 
TABS,ioos:station:wmo:42049:1,2014-02-05T08:30:00Z,28.3507,-96.0058,2.0,34.4572,11111222 
TABS,ioos:station:wmo:42049:1,2014-02-05T09:00:00Z,28.3507,-96.0058,2.0,34.4651,11111222 
TABS,ioos:station:wmo:42049:1,2014-02-05T09:30:00Z,28.3507,-96.0058,2.0,34.4915,11111222 
TABS,ioos:station:wmo:42049:1,2014-02-05T10:00:00Z,28.3507,-96.0058,2.0,34.4864,11111222 
TABS,ioos:station:wmo:42049:1,2014-02-05T10:30:00Z,28.3507,-96.0058,2.0,34.4849,11111222 
TABS,ioos:station:wmo:42049:1,2014-02-05T11:00:00Z,28.3507,-96.0058,2.0,34.4919,11111222 
TABS,ioos:station:wmo:42049:1,2014-02-05T11:30:00Z,28.3507,-96.0058,2.0,34.5021,11111222 
TABS,ioos:station:wmo:42049:1,2014-02-05T12:00:00Z,28.3507,-96.0058,2.0,34.5566,11111222 
TABS,ioos:station:wmo:42049:1,2014-02-05T12:30:00Z,28.3507,-96.0058,2.0,34.4981,11111222 
TABS,ioos:station:wmo:42049:1,2014-02-05T13:00:00Z,28.3507,-96.0058,2.0,34.5526,11111222 
TABS,ioos:station:wmo:42049:1,2014-02-05T13:30:00Z,28.3507,-96.0058,2.0,34.5513,11111222 
TABS,ioos:station:wmo:42049:1,2014-02-05T14:00:00Z,28.3507,-96.0058,2.0,34.5486,11111222 
TABS,ioos:station:wmo:42049:1,2014-02-05T14:30:00Z,28.3507,-96.0058,2.0,34.561,11111222 
TABS,ioos:station:wmo:42049:1,2014-02-05T15:00:00Z,28.3507,-96.0058,2.0,34.5818,11111222 
TABS,ioos:station:wmo:42049:1,2014-02-05T15:30:00Z,28.3507,-96.0058,2.0,34.5823,11111222 
TABS,ioos:station:wmo:42049:1,2014-02-05T16:00:00Z,28.3507,-96.0058,2.0,34.5776,11111222 
TABS,ioos:station:wmo:42049:1,2014-02-05T16:30:00Z,28.3507,-96.0058,2.0,34.5689,11111222 
TABS,ioos:station:wmo:42049:1,2014-02-05T17:00:00Z,28.3507,-96.0058,2.0,34.612,11111222 
TABS,ioos:station:wmo:42049:1,2014-02-05T17:30:00Z,28.3507,-96.0058,2.0,34.6575,11111222 
TABS,ioos:station:wmo:42049:1,2014-02-05T18:00:00Z,28.3507,-96.0058,2.0,34.6673,11111222 
TABS,ioos:station:wmo:42049:1,2014-02-05T18:30:00Z,28.3507,-96.0058,2.0,34.7085,11111222 
TABS,ioos:station:wmo:42049:1,2014-02-05T19:00:00Z,28.3507,-96.0058,2.0,34.7573,11111222 
TABS,ioos:station:wmo:42049:1,2014-02-05T19:30:00Z,28.3507,-96.0058,2.0,34.6326,11111222 
TABS,ioos:station:wmo:42049:1,2014-02-05T20:00:00Z,28.3507,-96.0058,2.0,34.5768,11111222 
TABS,ioos:station:wmo:42049:1,2014-02-05T20:30:00Z,28.3507,-96.0058,2.0,34.5251,11111222 
TABS,ioos:station:wmo:42049:1,2014-02-05T21:00:00Z,28.3507,-96.0058,2.0,34.4452,11111222 
TABS,ioos:station:wmo:42049:1,2014-02-05T21:30:00Z,28.3507,-96.0058,2.0,34.3766,11111222 
TABS,ioos:station:wmo:42049:1,2014-02-05T22:00:00Z,28.3507,-96.0058,2.0,34.3767,11111222 
TABS,ioos:station:wmo:42049:1,2014-02-05T22:30:00Z,28.3507,-96.0058,2.0,34.3211,11111222 
TABS,ioos:station:wmo:42049:1,2014-02-05T23:00:00Z,28.3507,-96.0058,2.0,34.2832,11111222 
TABS,ioos:station:wmo:42049:1,2014-02-05T23:30:00Z,28.3507,-96.0058,2.0,34.2097,11111222 
TABS,ioos:station:wmo:42049:1,2014-02-06T00:00:00Z,28.3507,-96.0058,2.0,34.1849,11111222 
TABS,ioos:station:wmo:42049:1,2014-02-06T00:30:00Z,28.3507,-96.0058,2.0,34.178,11111222 
TABS,ioos:station:wmo:42049:1,2014-02-06T01:00:00Z,28.3507,-96.0058,2.0,34.3265,11111222 
TABS,ioos:station:wmo:42049:1,2014-02-06T01:30:00Z,28.3507,-96.0058,2.0,34.1614,11111222 
TABS,ioos:station:wmo:42049:1,2014-02-06T02:00:00Z,28.3507,-96.0058,2.0,34.2098,11111222 
TABS,ioos:station:wmo:42049:1,2014-02-06T02:30:00Z,28.3507,-96.0058,2.0,34.0706,11111222 
TABS,ioos:station:wmo:42049:1,2014-02-06T03:00:00Z,28.3507,-96.0058,2.0,34.1071,11111222 
TABS,ioos:station:wmo:42049:1,2014-02-06T03:30:00Z,28.3507,-96.0058,2.0,34.1548,11111222 
TABS,ioos:station:wmo:42049:1,2014-02-06T04:00:00Z,28.3507,-96.0058,2.0,34.0742,11111222 
TABS,ioos:station:wmo:42049:1,2014-02-06T04:30:00Z,28.3507,-96.0058,2.0,34.0561,11111222 
TABS,ioos:station:wmo:42049:1,2014-02-06T05:00:00Z,28.3507,-96.0058,2.0,33.9384,11111222 
TABS,ioos:station:wmo:42049:1,2014-02-06T05:30:00Z,28.3507,-96.0058,2.0,33.7865,11111222 
TABS,ioos:station:wmo:42049:1,2014-02-06T06:00:00Z,28.3507,-96.0058,2.0,33.8778,11111222 
TABS,ioos:station:wmo:42049:1,2014-02-06T06:30:00Z,28.3507,-96.0058,2.0,34.1829,11111222 
TABS,ioos:station:wmo:42049:1,2014-02-06T07:00:00Z,28.3507,-96.0058,2.0,34.3176,11111222 
TABS,ioos:station:wmo:42049:1,2014-02-06T07:30:00Z,28.3507,-96.0058,2.0,34.1527,11111222 
TABS,ioos:station:wmo:42049:1,2014-02-06T08:00:00Z,28.3507,-96.0058,2.0,34.2677,11111222 
TABS,ioos:station:wmo:42049:1,2014-02-06T08:30:00Z,28.3507,-96.0058,2.0,34.36,11111222 
TABS,ioos:station:wmo:42049:1,2014-02-06T09:00:00Z,28.3507,-96.0058,2.0,34.3892,11111222 
TABS,ioos:station:wmo:42049:1,2014-02-06T09:30:00Z,28.3507,-96.0058,2.0,34.3947,11111222 
TABS,ioos:station:wmo:42049:1,2014-02-06T10:00:00Z,28.3507,-96.0058,2.0,34.4649,11111222 
TABS,ioos:station:wmo:42049:1,2014-02-06T10:30:00Z,28.3507,-96.0058,2.0,34.3046,11111222 
TABS,ioos:station:wmo:42049:1,2014-02-06T11:00:00Z,28.3507,-96.0058,2.0,34.5194,11111222 
TABS,ioos:station:wmo:42049:1,2014-02-06T11:30:00Z,28.3507,-96.0058,2.0,34.062,11111222 
TABS,ioos:station:wmo:42049:1,2014-02-06T12:00:00Z,28.3507,-96.0058,2.0,34.2302,11111222 